Regional Weather Roundup
Issued by NWS

Home | Current Version | Previous Version | Graphics & Text | Print | Product List | Glossary On
Versions: 1 2 3 4 5 6 7 8 9 10 11 12 13 14 15 16 17 18 19 20 21 22 23 24 25 26 27 28 29 30 31 32 33 34 35 36 37 38 39 40 41 42 43 44 45 46 47 48 49 50
000
ASUS43 KMPX 010601
RWRMN
WEATHER ROUNDUP FOR MINNESOTA
NATIONAL WEATHER SERVICE TWIN CITIES/CHANHASSEN MN
100 AM CDT MON SEP 01 2014


NOTE: "FAIR" INDICATES FEW OR NO CLOUDS BELOW 12,000 FEET WITH NO
SIGNIFICANT WEATHER AND/OR OBSTRUCTIONS TO VISIBILITY. N/A MEANS
CURRENT SKY AND/OR WEATHER CONDITIONS ARE NOT AVAILABLE.

MNZ060>063-068>070-010700-
   Twin Cities Metro

CITY           SKY/WX    TMP DP  RH WIND       PRES   REMARKS
TWIN CITIES    LGT RAIN  65  65 100 SE9       29.66R
6HR MIN TEMP:  65; 6HR MAX TEMP:  80; 6HR PCP:  0.47;

ST PAUL        LGT RAIN  66  65  96 S12       29.66R
CRYSTAL        CLOUDY    68  64  87 CALM      29.63R
BLAINE         LGT RAIN  66  66 100 W6        29.64R
LAKEVILLE      RAIN      63  63 100 S5        29.69R
EDEN PRAIRIE   RAIN      66  65  96 SE9       29.64R
6HR MIN TEMP:  66; 6HR MAX TEMP:  79; 6HR PCP:  1.12;

SOUTH ST PAUL  LGT RAIN  66  64  94 S5        29.67R
LAKE ELMO      LGT RAIN  64  64 100 S5        29.67R
$$
MNZ001>005-007-008-013>017-022>024-027-028-010700-
   Northwest Minnesota

CITY           SKY/WX    TMP DP  RH WIND       PRES   REMARKS
BEMIDJI        FAIR      59  58  97 CALM      29.63S
HALLOCK        MOCLDY    59  57  94 W3        29.64R
ROSEAU         FAIR      61  55  82 W5        29.62R
WARROAD        CLOUDY    59  55  88 W7        29.61S
THIEF RVR FALL MOCLDY    55  55 100 W6        29.65S VSB 1/2
CROOKSTON      FAIR      55  55 100 NW3       29.66S
FOSSTON        FAIR      57  57 100 CALM      29.64F
DETROIT LAKES  FAIR      61  59  94 W3        29.67S
MOORHEAD       FAIR      61  61 100 NW3       29.66S
PARK RAPIDS    FAIR      62  61  96 W7        29.65S
MAHNOMEN       FAIR      57  56  97 NW5       29.64F
$$
MNZ006-009>011-018-025>026-010700-
   North Central Minnesota

CITY           SKY/WX    TMP DP  RH WIND       PRES   REMARKS
BAUDETTE       CLOUDY    60  57  89 CALM      29.59F
FLAG ISLAND    CLOUDY    61  57  88 W13       29.56F
INTL FALLS     MOCLDY    61  59  93 W5        29.59S
6HR MIN TEMP:  61; 6HR MAX TEMP:  67; 6HR PCP: TRACE;

WASKISH        FAIR      61  57  88 W8        29.62S
BIG FORK       FAIR      61  59  94 CALM      29.62S FOG
LONGVILLE      CLOUDY    64  63  94 CALM      29.62S
GRAND RAPIDS   MOCLDY    63  61  94 S6        29.63R
CRANE LAKE     FAIR      61  59  94 CALM      29.60F
ORR            FAIR      63  57  82 CALM      29.58F
COOK           FAIR      63  63 100 CALM      29.60F
WALKER         FAIR      62  60  93 W5        29.64S
$$
MNZ012-019>021-037-010700-
   Northeast Minnesota

CITY           SKY/WX    TMP DP  RH WIND       PRES   REMARKS
DULUTH         LGT RAIN  64  61  90 SW5       29.61F
6HR MIN TEMP:  63; 6HR MAX TEMP:  69; 6HR PCP: TRACE;

ELY            RAIN      64  63  94 CALM      29.60F
HIBBING        LGT RAIN  63  61  93 CALM      29.60F FOG
EVELETH        DRIZZLE   63  61  94 CALM      29.62F
DULUTH HARBOR  LGT RAIN  63  61  94 SW3       29.60F
TWO HARBORS    LGT RAIN  63  57  82 CALM      29.58F
SILVER BAY     MOCLDY    61  61 100 CALM      29.59S
GRAND MARAIS     N/A     64  61  90 CALM      29.59F
G MARAIS ARPRT FAIR      61  57  88 S3        29.65F
$$
MNZ029>031-032-039>041-046>048-054>057-064-010700-
   West Central Minnesota

CITY           SKY/WX    TMP DP  RH WIND       PRES   REMARKS
FERGUS FALLS   FOG       61  59  94 W5        29.68R VSB<1/4
WHEATON        FAIR      61  61 100 W3        29.68S
MORRIS         FAIR      64  63  94 W6        29.66S
ALEXANDRIA     FAIR      65  63  93 W8        29.68S
ELBOW LAKE     MOCLDY    63  62  99 W5        29.68R
WADENA         MOCLDY    63  63 100 CALM      29.65S
GLENWOOD       FAIR      64  63  94 W8        29.67S
APPLETON       FAIR      63  61  94 W5        29.66F
BENSON         FAIR      64  63  94 N5        29.65F
ORTONVILLE     MOCLDY    64  61  88 W7        29.67S
MADISON        FAIR      66  63  88 W3        29.67F
WILLMAR        CLOUDY    66  64  94 CALM      29.67F
$$
MNZ033>034-036-042>043-049>051-058-059-010700-
   Central Minnesota

CITY           SKY/WX    TMP DP  RH WIND       PRES   REMARKS
ST CLOUD       MOCLDY    67  65  93 W5        29.63S
6HR MIN TEMP:  66; 6HR MAX TEMP:  71; 6HR PCP:  0.63;

SAUK CENTRE    CLOUDY    66  63  88 W6        29.66R
PAYNESVILLE    HVY RAIN  64  64 100 CALM      29.66R
AITKIN         CLOUDY    66  61  82 CALM      29.62S HAZE
PINE RIVER     CLOUDY    64  64 100 CALM      29.68R
BRAINERD       LGT RAIN  65  64  97 W3        29.64S
STAPLES        CLOUDY    63  63 100 W3        29.65R
LONG PRAIRIE   CLOUDY    64  63  94 W5        29.66R
LITTLE FALLS   RAIN      64  63  94 CALM      29.64S
LITCHFIELD     CLOUDY    66  66 100 CALM      29.65R
BUFFALO        MOCLDY    65  64  93 S5        29.66R
MAPLE LAKE     FAIR      65  65  97 CALM      29.65R
$$
MNZ037-044-045-052-053-010700-
   East Central Minnesota

CITY           SKY/WX    TMP DP  RH WIND       PRES   REMARKS
PRINCETON      FAIR      66  64  94 W6        29.63R
MORA           LGT RAIN  61  59  94 CALM      29.64F
CAMBRIDGE      LGT RAIN  66  59  77 SE3       29.62R
RUSH CITY      LGT RAIN  64  63  95 CALM      29.63F
MOOSE LAKE     DRIZZLE   64  64 100 CALM      29.61S
HINCKLEY       LGT RAIN  64  64 100 NW5       29.63F
CLOQUET        LGT RAIN  63  61  94 CALM      29.63S
MCGREGOR       CLOUDY    64  63  94 SW5       29.63F
$$
MNZ071>073-080-081-089-090-097-098-010700-
   Southwest Minnesota

CITY           SKY/WX    TMP DP  RH WIND       PRES   REMARKS
MONTEVIDEO     FAIR      64  63  94 NW3       29.67F
GRANITE FALLS  FAIR      63  62  96 CALM      29.68F
CANBY          FAIR      64  63  96 CALM      29.70S
MARSHALL       CLOUDY    64  61  88 W3        29.67R
REDWOOD FALLS  CLOUDY    66  65  96 S6        29.66S
OLIVIA         CLOUDY    68  64  88 SW3       29.66S
PIPESTONE      MOCLDY    63  59  88 CALM      29.71R
WINDOM         FAIR      66  64  94 W3        29.67F
WORTHINGTON    FAIR      64  63  94 NW6       29.68F
JACKSON        MOCLDY    64  63  94 E5        29.69R
TRACY          MOCLDY    65  64  95 CALM      29.68S
SLAYTON        FAIR      62  62  99 CALM      29.69F
$$
MNZ065>067-074>077-082>085-091>093-010700-
   South Central Minnesota

CITY           SKY/WX    TMP DP  RH WIND       PRES   REMARKS
MANKATO        CLOUDY    64  61  88 S7        29.66F
NEW ULM        FAIR      64  64 100 SE3       29.66F
ST JAMES       CLOUDY    66  64  94 SE6       29.68S
FAIRMONT       FAIR      63  57  82 SE6       29.69R
GLENCOE        LGT RAIN  65  63  91 S6        29.65R
FARIBAULT      LGT RAIN  68  63  83 S7        29.70S
OWATONNA       FAIR      64  63  94 SE5       29.70F
WASECA         CLOUDY    63  57  82 SE6       29.70F
ALBERT LEA     FAIR      63  63 100 S5        29.69F
$$
MNZ078>079-086>088-094>096-010700-
   Southeast Minnesota

CITY           SKY/WX    TMP DP  RH WIND       PRES   REMARKS
ROCHESTER      FAIR      64  61  90 S14G22    29.73R
6HR MIN TEMP:  64; 6HR MAX TEMP:  79; 6HR PCP:  0.33;

RED WING       RAIN      68  66  94 SW8       29.68R
STANTON        DRIZZLE   67  64  90 SW13G24   29.69R
DODGE CENTER   FAIR      64  63  94 S10       29.71F
WINONA         LGT RAIN  66  63  88 SW8G22    29.71R
AUSTIN         FAIR      63  63 100 SE7G16    29.68F
PRESTON        FAIR      63  63 100 S12G21    29.75S
$$
ABBREVIATIONS USED IN REMARKS
   TC - TEMPERATURES IN CELSIUS
  WCI - WIND CHILL INDEX
   HX - HEAT INDEX
  VSB - VISIBILITY
$$



USA.gov is the U.S. government's official web portal to all federal, state and local government web resources and services.